GFSMA_prec_cthk_276.txt.gz
RH
37 37 37 35 34 33 31 29 30 30 29 29 28 27 26 25 25 24 28 25 20 19 19 19 19 18 17 18 21 24 26 30 34 40 44 47 46 43 40 41 41 39 36
36 35 38 37 37 37 39 39 40 37 36 35 32 33 33 32 34 34 32 31 26 21 20 21 21 22 22 21 21 21 23 24 27 30 34 39 43 43 40 39 38 38 37
49 46 46 46 48 45 45 43 44 46 44 46 46 46 45 44 41 37 34 36 36 37 34 30 27 25 24 23 24 25 25 26 27 29 31 32 34 37 38 36 35 35 35
69 72 71 67 67 69 71 63 60 61 59 57 57 58 61 59 59 59 55 53 56 54 49 44 39 36 34 31 28 26 26 26 25 26 29 32 32 34 35 34 33 32 31
70 69 63 58 54 45 45 52 51 46 52 53 53 62 60 61 67 67 65 67 71 75 68 65 63 57 50 45 40 37 35 33 32 29 28 28 30 32 33 34 34 33 31
65 59 46 32 31 29 23 23 24 23 31 22 23 30 23 30 21 28 39 43 45 60 61 67 67 69 72 69 61 58 52 43 39 38 35 32 32 32 33 34 34 35 36
45 29 18 12 12 11 10 9 8 8 12 6 8 6 7 14 20 16 17 20 25 20 22 22 25 39 50 59 73 74 74 73 65 52 44 39 38 36 35 35 37 37 38
15 7 4 3 2 2 2 2 2 2 7 8 5 6 8 7 20 8 9 12 11 8 7 6 6 7 7 13 16 33 51 64 76 72 64 55 45 39 37 35 36 38 39
3 2 2 1 1 2 2 2 2 2 6 9 9 7 7 9 7 11 7 10 6 8 7 7 7 5 3 5 8 12 13 19 41 67 69 69 64 56 47 43 38 37 38
2 2 2 2 2 2 2 3 2 3 4 10 10 10 12 11 10 10 8 8 10 9 9 10 6 9 10 10 10 10 10 7 3 7 20 44 59 70 68 59 51 44 40
2 2 2 2 2 3 3 3 3 4 9 10 11 12 12 12 15 13 9 9 10 10 11 9 12 11 11 11 12 12 12 7 5 3 5 14 20 38 66 77 74 64 53
3 3 3 3 3 3 4 4 4 5 6 7 10 13 13 13 14 15 15 14 13 12 12 14 13 13 13 13 10 11 8 6 6 5 4 4 6 14 25 44 71 76 71
3 3 3 3 4 4 5 5 6 7 7 9 9 13 15 15 15 16 16 15 16 14 19 17 17 16 16 15 15 14 10 9 8 7 7 6 5 4 5 18 31 52 74
3 4 4 4 5 5 5 5 6 6 7 8 9 10 13 16 17 18 18 19 16 15 16 19 22 23 18 17 15 15 17 17 16 11 10 10 9 8 8 7 12 25 36
4 5 5 5 5 5 5 6 6 6 7 8 10 9 10 12 13 16 18 19 21 19 17 16 20 22 22 20 19 20 19 19 17 17 17 15 17 16 14 12 10 12 21
5 5 6 6 6 6 6 7 8 8 8 9 9 9 11 13 14 16 19 20 20 21 22 20 19 20 21 24 28 27 26 22 22 22 22 22 21 19 16 14 14 13 11
6 6 6 7 7 7 7 8 9 9 9 10 10 11 13 14 17 19 20 21 22 23 22 18 21 21 21 23 27 30 32 32 30 28 28 28 26 24 20 17 13 13 15
7 7 7 8 8 8 8 9 9 10 11 14 13 16 18 17 19 21 21 22 23 24 24 22 23 23 26 28 30 33 36 40 41 39 37 34 33 32 29 25 20 15 13
8 8 8 8 9 9 9 10 10 11 13 17 17 19 19 19 20 20 20 22 23 24 27 28 26 29 30 34 37 40 42 47 49 50 49 46 42 40 36 31 26 22 17
8 8 8 9 9 9 10 10 10 11 13 14 14 19 20 18 17 17 20 22 24 26 28 30 32 34 38 39 52 59 46 62 57 58 60 60 56 49 43 38 32 24 19
8 8 9 9 10 10 10 10 10 11 11 13 17 19 18 13 14 15 18 19 22 26 30 33 36 39 46 49 62 72 78 67 66 69 64 64 60 53 50 44 36 30 31
9 9 10 10 10 10 10 10 10 12 14 14 16 16 19 20 15 15 17 19 24 31 35 39 43 50 55 67 75 79 81 75 61 77 68 59 68 59 59 54 48 48 49
9 10 10 10 10 10 10 11 11 12 15 17 17 18 18 20 20 16 17 21 30 36 44 50 53 62 66 78 81 81 85 82 76 74 70 63 71 67 67 62 59 61 61
10 10 10 11 11 11 11 12 12 13 17 17 16 18 17 17 17 16 17 22 29 34 41 45 58 71 80 84 90 88 83 78 79 84 79 70 74 74 70 71 71 66 74
11 11 11 11 11 12 12 12 13 13 14 14 15 17 17 16 16 17 17 19 21 22 27 40 57 74 81 86 90 86 83 78 74 78 82 80 80 76 75 70 80 81 82
11 12 11 12 12 12 13 13 13 13 13 13 14 16 16 16 17 18 18 24 18 19 22 29 44 63 76 82 86 89 87 85 83 78 86 80 85 87 80 80 82 82 80

GFSMA_prec_cthk_279.txt.gz
RH
42 41 47 45 46 47 44 43 42 40 40 40 41 42 41 40 37 37 37 36 32 28 25 22 21 21 21 22 22 21 21 22 24 26 28 31 36 41 46 48 48 45 43
41 45 47 45 42 43 48 47 51 48 49 49 47 48 47 46 47 46 45 44 42 38 35 32 32 31 29 27 26 25 26 27 26 26 28 30 31 33 35 39 43 45 43
59 59 58 57 60 61 63 64 64 65 62 60 60 58 58 61 63 65 64 64 62 60 64 65 62 57 47 44 41 38 36 33 31 30 29 28 29 31 33 35 36 39 41
75 73 68 70 67 64 61 53 48 52 52 53 44 48 49 54 57 61 58 62 69 78 77 79 70 72 75 71 65 58 53 46 40 37 36 34 33 31 31 32 34 35 37
69 67 64 65 54 45 37 34 32 29 28 28 24 28 22 24 32 37 35 43 37 35 41 40 55 53 56 69 69 73 75 74 67 57 48 42 38 37 35 33 32 32 34
61 61 55 42 30 19 14 12 11 12 13 11 4 7 8 7 12 28 30 27 27 21 20 17 21 24 22 20 27 32 41 52 70 78 79 69 59 51 43 38 35 34 34
49 37 30 19 10 5 3 2 2 5 7 7 7 3 6 11 19 17 15 12 11 13 10 7 6 5 6 5 5 7 7 11 18 26 35 57 82 80 69 58 47 40 38
28 14 7 3 2 5 2 1 2 3 7 9 8 6 7 15 14 10 12 12 9 9 8 8 8 8 5 9 9 11 10 11 11 11 12 16 25 43 64 78 76 62 51
7 3 1 1 2 3 3 2 2 3 9 9 10 9 9 10 7 13 12 11 10 10 9 9 9 8 11 10 12 11 10 10 8 7 7 6 5 4 11 33 52 82 79
2 2 2 2 2 3 3 6 4 10 9 10 11 11 12 13 14 12 12 11 9 10 10 9 9 12 11 11 11 13 12 9 9 9 8 6 5 4 3 3 10 27 56
2 2 2 2 3 4 4 4 5 5 11 12 11 11 11 13 19 18 17 14 12 11 11 11 13 11 11 12 13 13 11 9 8 8 8 7 7 6 6 5 4 4 10
4 3 3 3 3 4 4 4 6 6 7 11 12 12 12 14 16 17 17 12 12 13 12 15 12 12 13 15 12 12 11 10 9 11 11 10 11 10 9 8 7 8 8
7 3 3 3 4 4 4 8 6 8 8 11 12 14 14 14 14 14 14 13 14 12 14 17 16 17 15 13 13 13 14 15 16 17 17 15 15 14 13 13 13 11 11
4 3 4 4 4 4 6 9 8 9 10 11 8 7 13 15 15 15 15 16 15 14 14 15 21 15 15 15 14 15 16 17 17 18 19 20 20 20 20 19 17 16 14
4 4 5 6 6 5 6 11 8 8 10 9 10 10 13 14 13 14 13 17 19 19 19 17 16 15 15 16 17 20 18 17 18 19 22 25 26 27 25 23 22 20 18
4 5 7 8 7 6 6 8 10 8 10 10 11 10 11 11 12 15 16 17 18 20 21 17 15 16 16 16 18 19 21 21 24 27 29 30 31 32 32 29 26 24 22
5 7 8 7 7 7 7 8 11 11 14 15 13 16 16 14 16 17 18 18 18 18 18 16 16 15 16 19 18 21 24 29 32 37 41 42 41 41 40 39 35 32 29
6 6 8 7 8 8 8 9 9 12 16 17 17 17 17 17 18 18 18 18 18 18 19 18 17 17 19 21 24 26 28 36 43 48 57 63 60 61 56 50 45 40 37
6 8 8 8 8 8 8 9 11 15 17 17 17 17 17 18 18 14 15 16 18 19 20 21 19 21 22 28 29 29 38 46 58 68 79 75 74 72 67 62 53 49 46
9 9 10 9 9 8 8 9 13 17 17 17 18 18 18 16 13 12 12 13 15 20 21 23 23 24 27 28 39 47 37 61 62 71 79 76 73 67 68 65 63 61 58
12 11 11 11 9 9 9 9 10 17 17 17 17 18 19 15 13 12 12 12 12 17 20 22 22 25 29 35 42 53 61 59 68 77 71 71 69 67 69 70 69 72 67
11 13 14 14 12 9 10 10 10 13 17 17 18 19 19 18 12 12 11 11 11 17 21 22 22 29 33 43 49 64 66 66 60 76 68 64 73 70 72 71 72 77 74
12 13 13 14 11 10 10 10 11 13 18 18 19 19 16 17 12 12 12 13 18 16 20 21 24 30 34 42 51 63 71 75 73 69 70 67 72 72 77 72 79 88 89
15 13 12 15 15 11 11 11 11 17 18 19 19 19 14 14 13 13 14 15 14 13 14 15 24 30 38 46 63 72 75 76 77 79 80 73 76 77 80 80 90 92 92
17 14 15 14 18 11 12 12 12 18 18 19 20 19 15 14 15 15 16 15 12 11 12 14 21 30 38 48 63 68 78 77 73 76 79 80 77 73 80 83 92 91 94
17 16 14 12 12 13 12 11 11 14 13 19 20 22 16 16 16 17 16 14 13 13 14 15 18 24 34 46 59 71 79 80 78 74 79 80 80 81 69 84 88 89 92

GFSMA_prec_cthk_285.txt.gz
RH
48 45 59 55 56 57 55 52 55 56 56 56 57 59 61 65 59 62 70 68 70 80 74 74 74 77 76 73 67 77 69 69 61 56 51 46 42 38 35 34 34 33 31
47 47 49 53 50 52 51 60 59 60 59 58 60 56 62 60 72 73 67 62 70 67 67 65 77 66 72 76 75 72 68 76 75 68 74 78 77 73 68 58 48 42 38
56 58 62 65 63 61 60 58 57 55 53 45 44 43 47 48 50 45 50 48 47 54 48 44 36 42 45 40 44 45 39 39 54 35 37 39 44 52 59 70 75 72 69
63 64 66 68 60 57 55 48 43 33 19 17 20 20 22 26 26 28 31 30 30 34 26 20 21 20 17 16 17 15 19 15 16 17 18 18 17 18 21 28 35 45 58
63 64 63 67 58 50 38 27 16 7 6 6 4 3 5 12 16 18 20 25 24 21 19 19 12 5 4 4 5 7 10 10 9 8 8 8 7 7 7 7 9 12 19
62 61 57 51 45 33 16 10 3 2 2 2 1 4 6 12 15 17 20 19 21 20 16 6 3 3 5 7 9 9 10 10 10 9 9 8 6 5 5 5 5 4 4
56 55 53 40 30 16 4 1 1 2 2 1 6 9 13 14 16 17 17 18 15 7 4 3 4 6 6 6 7 9 10 10 9 6 5 4 4 4 5 8 11 12 7
45 46 39 28 15 3 1 1 2 2 2 2 4 8 11 13 12 12 11 9 7 4 3 4 6 7 6 6 6 6 5 5 5 5 5 5 8 11 12 13 14 14 14
39 33 27 13 5 2 1 2 2 3 3 3 3 5 8 9 9 11 9 6 4 4 4 4 5 5 4 4 4 4 4 4 5 5 5 5 5 8 11 14 15 15 15
29 23 12 6 4 2 2 2 2 3 3 4 5 7 7 7 7 7 5 4 4 4 4 4 4 4 4 4 4 4 5 5 6 6 6 6 7 8 14 15 16 16 17
16 12 8 6 3 2 2 2 3 3 4 4 4 5 6 6 5 5 6 4 4 4 4 4 5 5 5 5 5 6 6 7 8 8 9 9 11 17 18 18 18 18 19
13 9 8 5 2 2 3 3 3 4 4 4 4 5 5 5 6 5 5 5 5 4 4 5 5 5 5 5 6 6 7 8 9 10 11 12 13 19 21 21 22 22 23
10 6 7 4 2 3 3 4 4 4 4 4 5 5 5 5 6 6 6 7 7 5 6 5 5 5 5 5 6 7 9 9 10 10 12 13 15 17 22 26 27 28 29
8 7 5 3 3 4 4 4 4 4 5 5 5 5 6 6 6 6 7 8 11 9 6 6 5 5 5 6 6 7 7 8 8 11 14 17 18 25 25 29 33 35 36
7 6 4 4 4 5 5 5 5 5 5 6 6 6 6 6 6 6 7 8 11 14 8 6 6 6 6 6 6 7 8 8 9 12 15 18 22 27 31 36 40 43 47
7 6 4 4 5 5 5 5 5 6 6 6 7 7 6 6 6 6 6 6 7 8 9 7 6 6 6 6 7 7 8 9 10 12 17 21 27 31 37 41 44 52 55
7 5 5 4 4 5 5 6 6 6 6 7 7 7 7 7 7 6 6 7 7 8 9 7 7 7 7 7 7 7 7 8 9 11 17 23 30 38 44 50 55 59 59
6 5 5 4 4 5 6 6 7 7 7 8 8 8 7 7 7 7 8 8 9 9 10 9 8 8 8 8 7 7 7 8 10 12 17 24 35 47 54 61 61 62 61
6 6 5 4 5 5 6 7 8 8 8 8 8 8 8 8 8 9 10 10 10 10 10 10 9 9 8 8 7 8 9 9 10 14 19 26 41 55 64 65 65 66 67
5 5 5 4 5 6 7 8 9 9 9 10 9 8 8 9 9 10 11 11 11 10 10 10 10 9 9 8 8 8 8 12 13 17 22 29 46 58 65 66 67 68 71
6 5 4 5 6 7 8 9 9 10 10 9 9 9 9 10 10 11 12 12 11 11 11 11 11 11 11 11 12 13 15 14 10 20 27 32 46 55 63 65 65 68 70
6 5 5 6 6 8 8 9 9 10 10 9 9 10 10 10 11 12 13 12 12 12 13 13 13 14 12 14 14 15 16 21 21 16 25 33 49 57 62 65 66 70 73
8 6 6 6 7 9 9 9 10 10 9 10 10 11 11 11 12 12 13 13 13 14 14 15 14 14 14 16 16 13 13 21 24 26 33 38 51 58 62 63 66 72 77
8 7 7 8 9 9 9 9 10 10 10 11 11 11 11 12 12 13 13 13 13 14 13 12 12 12 13 14 17 19 20 20 22 31 44 45 52 58 62 62 65 72 80
10 9 9 9 10 10 9 10 10 11 12 12 12 12 13 13 13 13 13 13 14 14 14 13 11 10 10 11 12 14 16 25 23 28 43 50 53 57 59 61 65 69 78
10 10 10 11 11 10 9 9 10 11 12 12 12 13 13 12 13 13 14 14 14 14 13 12 11 10 10 9 11 16 21 25 32 31 39 51 56 61 56 60 64 68 74

GFSMA_prec_cthk_291.txt.gz
RH
36 35 39 40 43 50 50 51 51 57 58 58 58 61 56 60 60 61 61 63 63 67 65 63 58 62 59 53 48 45 47 41 50 43 36 30 29 26 25 31 24 24 20
40 39 43 46 48 52 60 58 62 61 61 60 59 59 60 57 56 53 54 51 60 60 59 51 49 44 34 22 11 9 9 9 9 9 11 9 8 7 7 6 7 9 12
46 49 48 53 56 53 60 58 55 53 52 49 46 46 37 36 37 37 38 48 43 43 36 35 28 18 11 9 7 9 9 6 4 4 4 3 3 3 3 3 3 3 3
44 51 55 54 55 55 54 53 52 51 47 42 28 22 23 27 29 29 33 35 32 26 22 19 15 11 7 4 9 12 8 4 4 4 4 3 3 3 3 3 3 3 3
47 49 52 54 57 57 58 54 54 48 25 14 9 14 18 19 21 23 22 21 19 17 15 14 10 5 4 4 5 4 4 3 3 3 3 3 3 3 3 4 7 11 13
49 52 52 55 55 56 57 53 41 23 7 4 5 10 12 14 16 17 17 16 14 15 12 8 4 4 4 3 3 3 3 3 3 3 4 3 3 3 4 4 9 13 14
49 53 53 54 51 52 48 36 19 5 4 4 5 9 12 15 15 15 15 15 12 8 5 3 3 3 3 3 3 3 3 3 3 4 4 4 4 4 4 5 8 13 15
47 51 50 46 44 41 34 21 7 6 6 7 8 9 13 15 17 16 13 10 6 4 4 3 4 4 4 3 3 3 4 4 4 4 4 4 4 5 6 11 15 15 16
45 46 43 39 38 33 25 9 7 7 6 8 10 10 13 14 18 14 10 5 4 4 4 4 4 4 4 4 3 4 4 4 4 4 5 5 5 5 7 12 15 16 16
43 41 36 37 32 25 12 6 6 7 9 8 10 10 10 11 14 12 7 5 4 4 4 4 4 4 4 4 4 4 5 5 5 6 6 6 6 6 6 7 12 16 16
38 35 33 29 22 13 9 7 6 6 5 6 9 9 4 4 5 6 5 5 5 5 4 4 4 4 4 4 5 5 6 7 7 7 7 6 6 6 6 6 14 16 19
35 32 29 20 13 9 8 7 6 5 4 4 4 4 4 5 5 5 5 5 5 5 4 4 4 4 5 6 6 7 7 7 7 7 7 6 6 6 6 9 17 20 22
32 27 18 15 12 10 8 7 6 4 4 3 4 4 5 5 5 5 5 5 5 4 4 5 5 6 6 7 8 8 8 7 7 7 7 6 6 6 7 9 16 19 22
22 17 16 15 16 13 10 9 6 4 4 4 4 5 5 6 5 5 5 5 4 5 5 5 7 7 8 8 8 8 7 7 7 7 7 7 6 7 8 10 12 18 23
22 19 17 16 17 15 12 8 5 4 4 4 5 6 6 6 6 6 5 5 5 5 6 7 8 8 8 8 8 7 7 8 7 7 7 7 7 8 8 10 13 17 26
26 23 22 17 17 16 14 11 6 4 4 5 6 6 6 6 6 6 5 5 5 6 7 8 9 9 8 8 8 7 8 7 7 8 8 8 7 7 9 12 17 22 29
28 25 21 21 20 16 14 10 7 5 5 5 7 9 9 7 6 6 5 5 6 7 8 8 9 9 8 8 8 8 8 8 8 8 8 8 7 8 10 15 20 27 36
31 28 25 21 16 13 12 9 6 5 5 6 7 10 8 7 7 6 6 6 7 8 8 9 9 9 9 8 8 8 8 8 8 8 8 8 8 9 13 19 25 32 41
33 29 26 22 18 15 9 7 6 6 6 7 7 8 8 8 7 6 6 8 8 9 8 9 9 9 9 9 9 9 8 8 7 8 7 8 8 12 17 24 31 39 50
34 29 23 21 17 11 8 7 6 7 7 8 8 8 9 8 7 7 7 9 9 9 9 9 10 10 10 10 9 9 8 8 7 8 8 9 9 14 20 28 36 46 54
32 26 22 20 15 11 8 7 7 7 8 9 9 9 9 8 8 8 9 10 10 9 9 10 10 10 10 10 10 9 8 7 7 9 7 8 10 13 21 29 39 49 54
30 25 21 17 14 8 7 8 8 8 9 9 10 10 10 9 9 9 10 11 10 9 10 10 10 10 11 11 11 9 8 7 7 9 8 8 11 14 22 34 45 52 55
31 27 21 17 12 8 7 8 9 10 10 10 11 11 10 10 9 10 12 12 11 10 10 10 11 11 11 11 11 9 9 8 7 9 12 8 12 14 24 37 49 54 59
33 28 22 17 12 9 8 8 10 11 11 11 12 12 11 10 10 12 14 12 11 10 10 11 11 12 12 12 11 10 9 8 7 8 13 15 17 16 21 37 51 57 64
34 27 21 13 10 9 9 9 11 12 12 12 13 12 11 11 11 14 15 13 11 10 10 11 12 13 13 13 12 11 9 7 6 7 15 16 20 17 20 33 51 59 67
31 26 22 15 11 10 9 11 12 12 12 13 13 12 11 12 13 16 16 14 12 10 11 12 13 14 15 14 13 11 9 7 7 7 13 12 18 34 27 34 52 59 69